Location: Arleux
(50.3632°N, 2.8721°E)
Time: 21:01:49
(UTC+00:00)

Daily predictions for brighter satellites

Satellite Brightness Start Highest point End
(mag) Time Altitude Azimuth Time Altitude Azimuth Time Altitude Azimuth
Cosmos 1844 Rocket 3.4 17:04:29 10° NNW 17:09:33 34° NE 17:14:36 10° ESE
NOSS 3-1 (A) 4.5 17:07:25 10° SSE 17:11:20 21° ESE 17:15:40 10° ENE
CZ-2D R/B 3.5 17:07:55 10° SE 17:11:39 49° ENE 17:15:26 10° N
AQUARIUS 4.2 17:07:33 10° SSE 17:12:03 86° ENE 17:16:35 10° NNW
H-2A R/B 2.4 17:07:02 10° SE 17:12:16 51° ENE 17:17:33 10° N
X-37B 2.6 17:09:41 10° WSW 17:12:48 28° SSW 17:15:54 10° SE
Cosmos 371 Rocket 3.8 17:08:59 10° S 17:13:29 39° ESE 17:18:02 10° NE
Cosmos 1328 4.0 17:12:07 10° N 17:16:05 52° ENE 17:20:03 10° SSE
Cosmos 1908 3.2 17:12:29 10° S 17:16:21 88° E 17:20:14 10° N
Cosmos 1125 Rocket 4.2 17:11:23 10° SW 17:16:34 58° WNW 17:21:45 10° NNE
CENTAUR R/B 4.1 17:11:57 10° WNW 17:18:06 30° N 17:25:09 10° ENE
USA 267 3.4 17:14:56 10° SE 17:21:30 80° SSW 17:28:06 10° WNW
Cosmos 1269 Rocket 4.4 17:17:11 10° NNW 17:22:29 73° WSW 17:27:44 10° SSE
Tiangong 3.4 17:22:31 10° SW 17:24:42 17° S 17:26:53 10° SE
SKYMED 2 4.3 17:21:26 10° NNE 17:25:21 32° E 17:29:16 10° SSE
BREEZE-M R/B 2.6 17:24:53 10° W 17:28:44 70° S 17:32:42 10° ESE
H-2A R/B 4.0 17:30:43 10° ESE 17:30:43 10° ESE 17:30:44 10° ESE
Cosmos 1455 Rocket 3.0 17:25:09 10° S 17:29:34 75° E 17:34:03 10° NNE
Landsat 5 4.3 17:26:07 10° NNE 17:30:08 33° E 17:34:12 10° SSE
NOSS 2-3 (D) 4.2 17:27:08 10° S 17:30:51 36° ESE 17:35:08 10° NE
YAOGAN 1 3.6 17:27:42 10° ESE 17:31:17 26° ENE 17:34:52 10° N
GENESIS II 4.5 17:27:56 10° NNW 17:31:45 49° NE 17:35:35 10° ESE
Cosmos 1953 2.6 17:27:50 10° SSW 17:31:53 74° WNW 17:35:58 10° N
Cosmos 2278 4.0 17:28:17 10° SW 17:33:57 72° WNW 17:39:42 10° NNE
NOSS 3-1 (C) 3.5 17:29:22 10° SSW 17:34:28 50° ESE 17:40:28 10° NE
ATLAS 5 CENTAUR R/B 2.0 17:31:06 10° WSW 17:35:00 56° NW 17:39:31 10° NE
Cosmos 2278 Rocket 3.9 17:32:16 10° N 17:35:43 16° NNE 17:38:37 12° ENE
Lacrosse 4 Rocket 1.4 17:32:12 10° NNW 17:36:32 80° NE 17:40:56 10° SE
Cosmos 44 4.5 17:32:20 10° S 17:36:51 28° ESE 17:40:54 12° ENE
Cosmos 1140 Rocket 4.5 17:32:52 10° N 17:37:17 27° NE 17:41:12 12° ESE
Cosmos 407 Rocket 4.4 17:34:33 10° N 17:39:12 29° NE 17:43:29 12° ESE
Cosmos 1825 3.7 17:38:36 10° NNE 17:41:03 16° ENE 17:41:33 16° ENE
Cosmos 2251 Rocket 3.6 17:37:47 10° NNW 17:42:58 54° ENE 17:48:04 10° SE
Cosmos 1300 2.7 17:39:15 10° S 17:42:59 58° E 17:46:45 10° NNE
NOSS 2-3 (C) 3.8 17:39:23 10° SSW 17:43:17 48° SE 17:47:34 11° NE
Cosmos 1544 Rocket 3.6 17:39:45 10° S 17:44:09 62° E 17:48:34 10° NNE
SL-16 R/B 2.3 17:40:03 10° SSW 17:45:36 60° ESE 17:51:12 10° NE
Cosmos 1821 Rocket 4.5 17:42:49 10° SSW 17:49:09 67° WNW 17:55:29 10° N
SL-19 R/B 4.2 17:45:59 10° NNE 17:51:42 74° ESE 17:57:15 10° SSW
Cosmos 2322 Rocket 2.2 17:51:37 10° S 17:57:04 56° ESE 18:02:35 10° NE
Cosmos 1934 Rocket 3.9 17:52:06 10° S 17:58:11 84° E 18:04:16 10° N
CZ-4C R/B 3.2 17:55:11 10° NNE 17:58:24 42° E 18:01:30 10° S
deb Chang Zheng 4 4.2 17:55:53 10° S 18:00:01 58° WSW 18:04:14 10° NNW
Iridium 4 Rocket 3.4 17:55:57 10° N 18:00:38 86° W 18:05:46 10° S
Cosmos 614 Rocket 3.8 17:57:14 10° NNW 18:02:20 79° ENE 18:07:27 10° SSE
Cosmos 2219 Rocket 3.7 17:59:14 10° SE 18:01:22 16° ESE 18:01:22 16° ESE
Okean O Rocket 1.7 17:58:49 10° SSE 18:03:10 81° WSW 18:07:34 10° NNW
Cosmos 304 Rocket 3.7 17:58:37 10° S 18:03:20 62° ESE 18:08:06 10° NNE
Cosmos 1844 3.7 17:59:32 10° NNW 18:05:20 65° ENE 18:11:02 10° SE
Cosmos 2360 Rocket 2.5 18:00:49 10° S 18:06:04 42° ESE 18:11:23 10° NE
Cosmos 1602 Rocket 3.4 18:02:50 10° N 18:07:13 75° E 18:11:31 10° SSE
Meteor 1-4 Rocket 2.4 18:03:50 10° S 18:07:15 60° E 18:10:40 10° NNE
CZ-4 R/B 1.5 18:03:20 10° SSE 18:07:16 51° ENE 18:11:18 10° N
Cosmos 1932 4.4 18:01:22 10° NW 18:07:38 81° NE 18:13:52 10° SE
ARGOS 3.1 18:04:36 10° SSE 18:10:01 90° E 18:15:30 10° NNW
NOSS 8 (E) 4.5 18:10:13 10° SW 18:13:26 63° NW 18:14:52 26° NNE
COSMO-SKYMED 1 2.5 18:09:14 10° NNE 18:13:37 88° WNW 18:17:58 10° SSW
Cosmos 2333 Rocket 3.0 18:12:06 10° SSE 18:16:45 27° ESE 18:17:13 26° E
CZ-4B R/B 4.1 18:16:01 10° S 18:21:33 52° W 18:27:05 10° NNW
In-Cosmos 22 Rocket 4.0 18:17:03 10° NNW 18:22:25 86° E 18:27:44 10° SSE
SL-8 R/B 3.7 18:18:40 10° W 18:23:26 72° S 18:25:25 35° ESE
Cosmos 1190 Rocket 4.3 18:19:25 10° NNW 18:24:24 44° ENE 18:26:12 32° ESE
Spot 2 4.1 18:20:55 10° SSE 18:25:08 82° WSW 18:29:38 10° NNW
IRS-1C Rocket 4.1 18:20:18 10° SSE 18:25:28 61° ENE 18:30:41 10° N
Cosmos 332 Rocket 3.8 18:22:50 10° SSW 18:27:44 83° WNW 18:32:38 10° NNE
CZ-2C R/B 2.7 18:22:16 10° NNE 18:27:54 85° WNW 18:33:24 10° SSW
Cosmos 1943 Rocket 4.2 18:25:29 10° N 18:27:55 13° NNE 18:29:08 12° NE
Feng Yun 1-1 Rocket 4.4 18:22:25 10° SSE 18:28:02 82° WSW 18:33:52 10° NNW
Okean-O 2.8 18:26:34 31° SE 18:28:19 50° ENE 18:32:37 10° N
USA 215 3.4 18:24:03 19° ENE 18:28:55 73° NNW 18:35:25 10° WSW
Cosmos 1825 Rocket 3.5 18:25:12 10° N 18:29:28 55° ENE 18:31:17 31° SE
Cosmos 1980 Rocket 4.0 18:25:48 10° WSW 18:30:38 28° NW 18:35:33 10° NNE
CSL-04 Debris 4.3 18:28:30 23° SE 18:31:43 52° ENE 18:36:59 10° N
H-2A R/B 2.6 18:29:05 10° S 18:33:19 72° WSW 18:37:25 10° NNW
NOSS 2-3 (E) 3.8 18:29:25 10° SW 18:33:32 72° NW 18:36:32 23° NE
Cosmos 1892 2.7 18:30:20 10° NNW 18:34:06 75° W 18:37:50 10° S
Cosmos 1758 Rocket 3.5 18:32:32 10° NNW 18:36:53 83° W 18:41:13 10° S
Cosmos 2228 3.0 18:33:00 10° S 18:37:18 58° E 18:41:39 10° NNE
Cosmos 2322 4.3 18:33:30 10° S 18:38:00 34° ESE 18:38:00 34° ESE
USA 229 DEB 3.5 18:32:24 10° SSW 18:38:48 74° SE 18:43:37 21° NE
USA 229 3.5 18:32:31 10° SSW 18:38:54 74° SE 18:43:41 21° NE
Cosmos 2344 4.4 18:29:58 10° NW 18:38:57 76° SW 18:51:31 10° SSE
Cosmos 1408 2.8 18:37:10 10° NNW 18:40:45 68° W 18:43:38 15° S
CSL-04 Rocket 3.7 18:39:01 29° SE 18:41:47 58° ENE 18:47:14 10° N
Cosmos 1953 Rocket 3.7 18:38:57 10° N 18:43:15 51° ENE 18:43:15 51° ENE
Cosmos 1459 Rocket 4.0 18:42:12 10° SSE 18:48:06 50° E 18:53:58 10° NNE
Cosmos 220 Rocket 4.2 18:43:42 10° SSW 18:48:06 71° WNW 18:51:30 17° NNE
X-37B 3.6 18:48:33 10° SW 18:50:01 12° SSW 18:51:09 11° S
SL-08 RB Rocket 4.5 18:46:19 10° S 18:50:47 53° W 18:55:20 10° NNW
H-2A R/B 4.2 18:47:15 10° SSW 18:51:56 29° W 18:56:39 10° NNW
HJ-1C 3.9 18:52:28 52° SW 18:52:48 55° W 18:56:02 10° NNW
Cosmos 1844 Rocket 3.4 18:48:17 10° NW 18:53:41 52° WSW 18:59:04 10° S
Cosmos 2100 Rocket 4.0 18:47:43 10° S 18:53:55 60° E 19:00:11 10° NNE
Meteor 2-10 Rocket 4.0 18:48:32 10° SSW 18:53:59 65° WNW 18:59:16 10° N
ATLAS 3B R/B 4.1 18:48:23 10° WNW 18:54:12 29° NNW 18:58:46 16° NE
Cosmos 2369 Rocket 4.4 18:54:45 10° N 18:56:25 11° NNE 18:57:05 11° NNE
Tiangong 4.0 18:59:43 10° SW 19:00:17 11° SSW 19:00:17 11° SSW
NOSS 3-1 (A) 3.3 18:55:48 10° SW 19:01:15 83° NW 19:04:33 30° NE
DMSP B5D2-2 3.9 18:56:52 10° NNE 19:02:10 86° ESE 19:07:23 10° SSW
Cosmos 2058 4.1 18:59:16 10° N 19:01:39 32° N 19:01:39 32° N
Cosmos 2173 Rocket 3.9 18:58:16 10° S 19:04:24 66° E 19:10:40 10° NNE
Cosmos 1802 Rocket 4.0 19:05:58 53° E 19:05:58 53° E 19:11:39 10° NNE
H-2A R/B 3.0 19:07:49 35° SSW 19:07:49 35° SSW 19:10:20 10° SSW
BREEZE-M DEB (TANK) 4.2 19:02:16 10° W 19:06:15 31° SW 19:06:15 31° SW
YAOGAN 1 3.8 19:03:07 10° S 19:07:12 41° W 19:11:20 10° NNW
IRS-P2 Rocket 4.5 19:06:16 40° SSE 19:08:14 87° WSW 19:13:29 10° NNW
CENTAUR R/B 3.6 19:03:34 10° NW 19:10:49 44° NNE 19:12:59 37° ENE
Lacrosse 4 Rocket 4.4 19:12:09 10° WNW 19:14:39 15° WSW 19:17:10 10° SW
Cosmos 1825 3.2 19:13:09 10° NNW 19:16:21 45° WNW 19:16:21 45° WNW
Cosmos 44 3.8 19:12:25 10° SW 19:17:48 65° NW 19:19:21 44° NNE
NOSS 3-2 (A) 4.3 19:11:43 10° NW 19:18:34 49° NNE 19:19:55 45° ENE
Cosmos 1140 Rocket 4.0 19:14:20 10° NNW 19:19:26 58° WSW 19:21:15 37° SSW
ATLAS 5 CENTAUR R/B 3.7 19:17:20 10° WNW 19:20:37 20° NNW 19:21:54 18° N
Cosmos 2278 Rocket 2.6 19:15:37 10° NNW 19:20:29 50° NNE 19:20:29 50° NNE
Cosmos 407 Rocket 4.1 19:16:18 10° NNW 19:21:30 54° WSW 19:23:45 32° SSW
ATLAS 5 CENTAUR R/B 4.2 19:05:44 10° W 19:23:20 42° NNW 19:26:02 29° NNE
NOSS 3-1 (C) 4.2 19:20:01 10° WSW 19:25:24 46° NNW 19:28:48 25° NNE
Cosmos 2333 4.1 19:21:41 10° SSW 19:27:21 88° WNW 19:27:51 75° NNE
USA 238 DEB 4.3 19:22:25 10° NW 19:29:07 43° NNE 19:29:49 42° NE
USA 238 4.3 19:22:31 10° NW 19:29:12 42° NNE 19:29:54 41° NE
SL-16 R/B 3.8 19:25:03 10° WSW 19:30:04 31° NW 19:35:08 10° NNE
Cosmos 676 Rocket 4.2 19:25:55 10° NNW 19:30:25 66° NNW 19:30:25 66° NNW
Tsikada Rocket 4.2 19:25:39 10° N 19:30:42 54° NNE 19:30:42 54° NNE
Cosmos 1954 Rocket 4.2 19:28:36 10° NNW 19:33:11 68° NNW 19:33:11 68° NNW
Cosmos 2322 Rocket 3.7 19:36:26 10° WSW 19:41:26 32° NW 19:46:08 12° NNE
CZ-4 R/B 4.1 19:39:43 10° SW 19:42:33 18° W 19:45:27 10° NW
Cosmos 2219 Rocket 3.4 19:40:21 10° SSW 19:43:12 32° SSW 19:43:12 32° SSW
Cosmos 2360 Rocket 3.3 19:44:46 10° WSW 19:50:06 41° NW 19:53:15 23° N
Cosmos 2333 Rocket 2.9 19:55:01 10° SW 19:59:19 48° WSW 19:59:19 48° WSW
USA 215 3.7 20:11:24 51° N 20:11:32 51° N 20:17:48 10° WNW
Cosmos 1943 Rocket 4.0 20:08:15 10° NNW 20:10:39 23° N 20:10:39 23° N
Cosmos 2369 Rocket 4.5 20:37:28 10° NNW 20:38:51 16° N 20:38:51 16° N
ATLAS 3B R/B 4.1 20:40:59 10° NW 20:46:00 29° N 20:46:00 29° N
CENTAUR R/B 3.6 20:54:20 10° NW 21:00:09 55° NW 21:00:09 55° NW
Cosmos 2278 Rocket 4.4 21:00:06 10° NW 21:02:19 21° WNW 21:02:19 21° WNW
